sat.trackr.live / text

‹ back to catalog

STARLINK-31908

NORAD 59901 · 2024-100S

PAYLOAD ACTIVE UNKNOWN

§ Identity

Operator
Country
US
Launch date
2024-05-28
Launch site
AFETR
Launch vehicle
Mass (kg)
RCS (m²)

Purposes: comms

External: N2YO · Heavens-Above · Gunter

§ Orbital elements

Epoch: 2026-05-25T02:17:56.327712Z

Period
94.27 min
Inclination
43.0036°
Eccentricity
0.0001115
Mean motion
15.27586688 rev/d
Perigee alt
482.3 km
Apogee alt
483.8 km
Semi-major
6,861.2 km
B*
3.2166e-5
RAAN
46.8522°
Arg perigee
275.4394°
Mean anomaly
84.6330°
Rev number
11,291

§ Raw data

STARLINK-319081 59901U 24100S   26145.09579083  .00000623  00000+0  32166-4 0  99922 59901  43.0036  46.8522 0001115 275.4394  84.6330 15.27586688112915

JSON: /api/v1/satellites/59901 · /tle

For live sub-satellite position, see the globe view (requires WebGL).

§ Visibility from observer

Set your observer location to see the next 7 days of passes ≥ 10°. The values pass through the URL so the page stays shareable.

No JS? Fill the form by hand. The geolocation button needs JavaScript.